CW3642 Weather Reports


Display with metric or nautical units.
time (UTC)temp
F
wind
direction
speed
MPH
gust
MPH
rain 1hr
in
rain 24hr
in
rain mn
in
humidity
%
barometer
mb
20260507014838 39 360 0.0 0.0 0.00 0.00 0.00 72 1012.9
20260507014338 39 360 0.0 0.0 0.00 0.00 0.00 72 1012.8
20260507013838 39 360 0.0 0.0 0.00 0.00 0.00 72 1012.8
20260507013338 39 360 0.0 0.0 0.00 0.00 0.00 71 1012.8
20260507012838 39 360 0.0 0.0 0.00 0.00 0.00 71 1012.7
20260507012339 39 360 0.0 0.0 0.00 0.00 0.00 69 1012.6
20260507011839 40 360 0.0 0.0 0.00 0.00 0.00 68 1012.7
20260507005838 40 360 0.0 0.0 0.00 0.00 0.00 67 1012.7
20260507005338 40 360 0.0 0.0 0.00 0.00 0.00 67 1012.6
20260507004838 40 360 0.0 0.0 0.00 0.00 0.00 65 1012.6
20260507004338 41 360 0.0 0.0 0.00 0.00 0.00 63 1012.6
20260507003339 41 360 0.0 0.0 0.00 0.00 0.00 64 1012.5
20260507002838 41 360 0.0 0.0 0.00 0.00 0.00 63 1012.5
20260507002338 41 360 0.0 0.0 0.00 0.00 0.00 62 1012.5
20260507001838 41 360 0.0 0.0 0.00 0.00 0.00 63 1012.4
20260507001338 41 360 0.0 0.0 0.00 0.00 0.00 62 1012.4
20260507000838 41 360 0.0 0.0 0.00 0.00 0.00 61 1012.4
20260507000338 41 360 0.0 0.0 0.00 0.00 0.00 61 1012.4
20260506235838 41 360 0.0 0.0 0.00 0.00 0.00 61 1012.3
20260506235338 41 360 0.0 0.0 0.00 0.00 0.00 60 1012.2
20260506234338 42 360 0.0 0.0 0.00 0.00 0.00 59 1012.3
20260506233838 42 360 0.0 0.0 0.00 0.00 0.00 59 1012.3
20260506232838 42 360 0.0 0.0 0.00 0.00 0.00 59 1012.4
20260506232338 42 360 0.0 0.0 0.00 0.00 0.00 58 1012.4
20260506231838 42 360 0.0 0.0 0.00 0.00 0.00 59 1012.4
20260506230838 42 360 0.0 0.0 0.00 0.00 0.00 57 1012.4
20260506225838 42 360 0.0 0.0 0.00 0.00 0.00 57 1012.4
20260506225338 42 360 0.0 0.0 0.00 0.00 0.00 56 1012.1
20260506224838 42 360 0.0 0.0 0.00 0.00 0.00 56 1012.2
20260506224338 42 360 0.0 0.0 0.00 0.00 0.00 57 1012.2
20260506223838 42 360 0.0 0.0 0.00 0.00 0.00 56 1012.1
20260506222338 42 360 0.0 0.0 0.00 0.00 0.00 56 1012.1
20260506221838 43 360 0.0 0.0 0.00 0.00 0.00 53 1012.2
20260506220838 43 360 0.0 9.0 0.00 0.00 0.00 55 1012.3
20260506215834 43 360 0.0 9.0 0.00 0.00 0.00 56 1012.2
20260506215334 44 360 0.0 9.0 0.00 0.00 0.00 51 1012.2
20260506214834 44 360 0.0 9.0 0.00 0.00 0.00 52 1012.2
20260506214334 44 360 0.0 9.0 0.00 0.00 0.00 51 1012.3
20260506213834 45 360 0.0 9.0 0.00 0.00 0.00 50 1012.3
20260506213334 45 360 0.0 9.0 0.00 0.00 0.00 51 1012.2
20260506212334 45 360 0.0 9.0 0.00 0.00 0.00 50 1012.2
20260506211834 46 360 4.0 9.0 0.00 0.00 0.00 49 1012.4
20260506211334 46 360 1.0 9.0 0.00 0.00 0.00 52 1012.3
20260506210834 46 360 0.0 9.0 0.00 0.00 0.00 50 1012.3
20260506210334 45 360 2.0 9.0 0.00 0.00 0.00 50 1012.2
20260506205834 45 360 0.0 9.0 0.00 0.00 0.00 51 1012.2
20260506205334 45 360 0.0 9.0 0.00 0.00 0.00 52 1012.3
20260506204834 45 360 2.0 9.0 0.00 0.00 0.00 50 1012.2
20260506203834 45 360 2.0 9.0 0.00 0.00 0.00 48 1012.3
20260506203334 46 360 3.0 9.0 0.00 0.00 0.00 49 1012.5
20260506202334 46 360 0.0 9.0 0.00 0.00 0.00 50 1012.4
20260506201834 46 360 2.0 9.0 0.00 0.00 0.00 49 1012.3
20260506201334 46 360 0.0 9.0 0.00 0.00 0.00 50 1012.4
20260506200834 46 360 0.0 9.0 0.00 0.00 0.00 48 1012.4
20260506200334 46 360 2.0 9.0 0.00 0.00 0.00 49 1012.4
20260506194834 46 360 0.0 9.0 0.00 0.00 0.00 51 1012.6
20260506194334 46 360 2.0 9.0 0.00 0.00 0.00 50 1012.6
20260506193834 45 360 2.0 9.0 0.00 0.00 0.00 50 1012.5
20260506192834 46 360 6.0 9.0 0.00 0.00 0.00 49 1012.5
20260506192334 46 360 2.0 9.0 0.00 0.00 0.00 48 1012.5
20260506191834 46 360 3.0 9.0 0.00 0.00 0.00 47 1012.6
20260506191334 46 360 1.0 9.0 0.00 0.00 0.00 47 1012.7
20260506190834 47 360 2.0 9.0 0.00 0.00 0.00 46 1012.6
20260506190334 48 360 5.0 9.0 0.00 0.00 0.00 47 1012.6
20260506185834 48 360 0.0 9.0 0.00 0.00 0.00 47 1012.5
20260506185334 47 360 1.0 9.0 0.00 0.00 0.00 50 1012.5
20260506184834 47 360 0.0 9.0 0.00 0.00 0.00 48 1012.6
20260506184334 47 360 0.0 9.0 0.00 0.00 0.00 48 1012.6
20260506183834 47 360 0.0 9.0 0.00 0.00 0.00 49 1012.7
20260506183334 47 360 2.0 9.0 0.00 0.00 0.00 48 1012.7
20260506182834 47 360 2.0 9.0 0.00 0.00 0.00 47 1012.7
20260506182334 47 360 4.0 9.0 0.00 0.00 0.00 46 1012.7
20260506181834 47 360 2.0 9.0 0.00 0.00 0.00 46 1012.6
20260506175344 48 360 3.0 6.0 0.00 0.00 0.00 48 1012.9
20260506174344 46 360 1.0 6.0 0.00 0.00 0.00 56 1012.8
20260506172333 46 360 3.0 6.0 0.00 0.00 0.00 54 1013.0
20260506171833 46 360 3.0 6.0 0.00 0.00 0.00 55 1012.9
20260506171333 46 360 3.0 6.0 0.00 0.00 0.00 55 1012.9
20260506170333 46 360 4.0 6.0 0.00 0.00 0.00 57 1013.0
20260506165833 47 360 3.0 6.0 0.00 0.00 0.00 56 1013.2
20260506164833 46 360 8.0 6.0 0.00 0.00 0.00 57 1013.1
20260506163833 46 360 2.0 6.0 0.00 0.00 0.00 54 1013.1
20260506163333 46 360 2.0 6.0 0.00 0.00 0.00 55 1013.0
20260506162833 46 360 2.0 6.0 0.00 0.00 0.00 54 1013.1
20260506162333 46 360 2.0 6.0 0.00 0.00 0.00 56 1013.0
20260506161333 46 360 1.0 6.0 0.00 0.00 0.00 53 1013.0
20260506160833 46 360 2.0 6.0 0.00 0.00 0.00 53 1013.0
20260506160333 45 360 1.0 6.0 0.00 0.00 0.00 55 1013.0
20260506155833 45 360 4.0 6.0 0.00 0.00 0.00 53 1012.9
20260506155333 45 360 2.0 6.0 0.00 0.00 0.00 54 1012.9
20260506154833 45 360 6.0 6.0 0.00 0.00 0.00 54 1012.8
20260506154333 45 360 4.0 6.0 0.00 0.00 0.00 50 1012.8
20260506153833 45 360 3.0 6.0 0.00 0.00 0.00 50 1012.8
20260506153333 45 360 2.0 6.0 0.00 0.00 0.00 55 1012.8
20260506152833 44 360 2.0 6.0 0.00 0.00 0.00 52 1012.6
20260506152333 44 360 2.0 6.0 0.00 0.00 0.00 54 1012.5
20260506151833 45 360 1.0 6.0 0.00 0.00 0.00 52 1012.5
20260506151333 45 360 2.0 6.0 0.00 0.00 0.00 50 1012.6
20260506150833 45 360 2.0 6.0 0.00 0.00 0.00 53 1012.5
20260506150333 45 360 2.0 6.0 0.00 0.00 0.00 48 1012.4
20260506145833 45 360 3.0 6.0 0.00 0.00 0.00 50 1012.5
20260506144833 45 360 3.0 6.0 0.00 0.00 0.00 52 1012.4
20260506143833 45 360 4.0 6.0 0.00 0.00 0.00 50 1012.3
20260506143333 45 360 2.0 6.0 0.00 0.00 0.00 50 1012.4
20260506142833 45 360 1.0 6.0 0.00 0.00 0.00 53 1012.2
20260506141833 45 360 5.0 6.0 0.00 0.00 0.00 51 1012.2
20260506141333 45 360 0.0 6.0 0.00 0.00 0.00 50 1012.1
20260506140833 44 360 3.0 14.0 0.00 0.00 0.00 51 1012.1
20260506135833 44 360 2.0 0.0 0.00 0.00 0.00 54 1011.9
20260506135333 44 360 0.0 0.0 0.00 0.00 0.00 54 1011.8
20260506134833 44 360 1.0 0.0 0.00 0.00 0.00 56 1011.9
20260506134333 44 360 0.0 0.0 0.00 0.00 0.00 56 1011.8
20260506133833 44 360 0.0 0.0 0.00 0.00 0.00 56 1011.8
20260506133333 43 360 0.0 0.0 0.00 0.00 0.00 58 1011.8
20260506132833 43 360 0.0 0.0 0.00 0.00 0.00 57 1011.8
20260506132333 43 360 0.0 0.0 0.00 0.00 0.00 58 1011.8
20260506131833 43 360 0.0 0.0 0.00 0.00 0.00 55 1011.7
20260506131333 43 360 0.0 0.0 0.00 0.00 0.00 61 1011.8
20260506130833 42 360 0.0 0.0 0.00 0.00 0.00 60 1011.8
20260506125833 42 360 0.0 0.0 0.00 0.00 0.00 61 1011.8
20260506124333 41 360 0.0 0.0 0.00 0.00 0.00 60 1011.7
20260506123833 41 360 0.0 0.0 0.00 0.00 0.00 62 1011.7
20260506123333 40 360 0.0 0.0 0.00 0.00 0.00 65 1011.8
20260506122333 39 360 0.0 0.0 0.00 0.00 0.00 70 1011.8
20260506121333 38 360 0.0 0.0 0.00 0.00 0.00 78 1011.6
20260506120333 36 360 0.0 0.0 0.00 0.00 0.00 83 1011.3
20260506115833 35 360 0.0 0.0 0.00 0.00 0.00 87 1011.2
20260506115333 34 360 0.0 0.0 0.00 0.00 0.00 90 1011.2
20260506114833 33 360 0.0 0.0 0.00 0.00 0.00 93 1011.2
20260506114333 31 360 0.0 0.0 0.00 0.00 0.00 93 1011.1
20260506113833 30 360 0.0 0.0 0.00 0.00 0.00 93 1011.0
20260506113333 29 360 0.0 0.0 0.00 0.00 0.00 93 1010.8
20260506112333 28 360 0.0 0.0 0.00 0.00 0.00 92 1010.7
20260506111833 28 360 0.0 0.0 0.00 0.00 0.00 91 1010.6
20260506111333 28 360 0.0 0.0 0.00 0.00 0.00 91 1010.6
20260506110833 28 360 0.0 0.0 0.00 0.00 0.00 91 1010.6
20260506110333 27 360 0.0 0.0 0.00 0.00 0.00 91 1010.4
20260506105833 27 360 0.0 0.0 0.00 0.00 0.00 90 1010.3
20260506105333 27 360 0.0 0.0 0.00 0.00 0.00 90 1010.6
20260506104833 28 360 0.0 0.0 0.00 0.00 0.00 90 1010.5
20260506104333 28 360 0.0 0.0 0.00 0.00 0.00 90 1010.5
20260506103833 28 360 0.0 0.0 0.00 0.00 0.00 89 1010.6
20260506103333 28 360 0.0 0.0 0.00 0.00 0.00 89 1010.5
20260506102833 28 360 0.0 0.0 0.00 0.00 0.00 89 1010.5
20260506102333 28 360 0.0 0.0 0.00 0.00 0.00 89 1010.4
20260506101833 28 360 0.0 0.0 0.00 0.01 0.00 88 1010.5
20260506100833 28 360 0.0 6.0 0.00 0.01 0.00 88 1010.3
20260506095842 28 360 0.0 6.0 0.00 0.01 0.00 87 1010.3
20260506095342 29 360 0.0 6.0 0.00 0.01 0.00 87 1010.4
20260506094842 29 360 0.0 6.0 0.00 0.01 0.00 86 1010.4
20260506094342 29 360 0.0 6.0 0.00 0.01 0.00 86 1010.5
20260506093842 29 360 0.0 6.0 0.00 0.01 0.00 85 1010.4
20260506093342 30 360 0.0 6.0 0.00 0.01 0.00 85 1010.5
20260506092842 30 360 0.0 6.0 0.00 0.01 0.00 84 1010.4
20260506092342 30 360 0.0 6.0 0.00 0.01 0.00 83 1010.4
20260506091842 31 360 0.0 6.0 0.00 0.01 0.00 82 1010.3
20260506091342 31 360 0.0 6.0 0.00 0.01 0.00 82 1010.4
20260506090842 31 360 0.0 6.0 0.00 0.01 0.00 81 1010.3
20260506090342 32 360 0.0 6.0 0.00 0.01 0.00 81 1010.4
20260506085842 32 360 0.0 6.0 0.00 0.01 0.00 80 1010.5
20260506085342 33 360 0.0 6.0 0.00 0.01 0.00 80 1010.4
20260506084842 33 360 0.0 6.0 0.00 0.01 0.00 80 1010.4
20260506084342 33 360 0.0 6.0 0.00 0.01 0.00 80 1010.4
20260506083842 34 360 0.0 6.0 0.00 0.01 0.00 80 1010.5
20260506083342 34 360 0.0 6.0 0.00 0.01 0.00 80 1010.5
20260506082842 34 360 0.0 6.0 0.00 0.01 0.00 80 1010.5
20260506082342 34 360 0.0 6.0 0.00 0.01 0.00 80 1010.5
20260506081843 34 360 0.0 6.0 0.00 0.01 0.00 80 1010.5
20260506081342 34 360 0.0 6.0 0.00 0.01 0.00 82 1010.5
20260506080842 34 360 0.0 6.0 0.00 0.01 0.00 82 1010.6
20260506080343 34 360 0.0 6.0 0.00 0.01 0.00 82 1010.5
20260506073342 35 360 0.0 6.0 0.00 0.01 0.00 81 1010.5
20260506072342 35 360 0.0 6.0 0.00 0.01 0.00 80 1010.6
20260506071842 35 360 0.0 6.0 0.00 0.01 0.00 79 1010.7
20260506071342 35 360 0.0 6.0 0.00 0.01 0.00 78 1010.7
20260506070842 36 360 0.0 6.0 0.00 0.01 0.00 77 1010.8
20260506070342 36 360 0.0 6.0 0.00 0.01 0.00 76 1010.8
20260506062342 37 360 0.0 6.0 0.00 0.01 0.00 76 1010.6
20260506061342 37 360 4.0 6.0 0.00 0.01 0.00 76 1010.4
20260506060843 37 360 3.0 15.0 0.00 0.01 0.00 76 1010.5
20260506051320 37 360 0.0 15.0 0.00 0.01 0.00 75 1010.5
20260506050320 37 360 0.0 15.0 0.00 0.01 0.00 75 1010.3
20260506044820 37 360 0.0 15.0 0.00 0.01 0.00 73 1010.1
20260506044320 37 360 0.0 15.0 0.00 0.01 0.00 73 1010.1
20260506043819 37 360 4.0 15.0 0.00 0.01 0.00 73 1010.1
20260506042819 38 360 3.0 15.0 0.00 0.01 0.00 72 1010.1
20260506042319 38 360 3.0 15.0 0.00 0.01 0.00 73 1010.1
20260506041819 38 360 2.0 15.0 0.00 0.01 0.00 73 1010.0
20260506041319 38 360 3.0 15.0 0.00 0.01 0.00 73 1010.1
20260506040819 38 360 2.0 15.0 0.00 0.01 0.00 73 1010.1
20260506040319 38 360 5.0 15.0 0.00 0.01 0.00 73 1010.1
20260506035849 38 360 4.0 15.0 0.00 0.01 0.00 73 1010.1
20260506035349 38 360 5.0 15.0 0.00 0.01 0.01 73 1010.1
20260506034820 38 360 3.0 15.0 0.00 0.01 0.01 73 1010.1
20260506033819 38 360 5.0 15.0 0.00 0.01 0.01 73 1009.8
20260506033320 38 360 5.0 15.0 0.00 0.01 0.01 75 1009.7
20260506032849 38 360 8.0 15.0 0.00 0.01 0.01 75 1009.7
20260506031819 38 360 10.0 15.0 0.00 0.01 0.01 76 1009.7
20260506030850 38 360 2.0 15.0 0.00 0.01 0.01 76 1009.5
20260506030319 38 360 5.0 15.0 0.00 0.01 0.01 77 1009.5
20260506025849 38 360 2.0 15.0 0.00 0.01 0.01 77 1009.5
20260506025349 38 360 1.0 15.0 0.00 0.01 0.01 78 1009.5
20260506024819 38 360 3.0 15.0 0.00 0.01 0.01 78 1009.5
20260506024319 38 360 2.0 15.0 0.00 0.01 0.01 78 1009.4
20260506023849 39 360 2.0 15.0 0.00 0.01 0.01 78 1009.3
20260506023349 39 360 9.0 15.0 0.00 0.01 0.01 78 1009.2
20260506022820 39 360 4.0 15.0 0.00 0.01 0.01 78 1009.1
20260506022349 39 360 3.0 15.0 0.00 0.01 0.01 79 1009.1
20260506021850 39 360 4.0 15.0 0.00 0.01 0.01 79 1009.1
20260506021320 39 360 0.0 15.0 0.00 0.01 0.01 79 1009.0
20260506020819 39 360 5.0 15.0 0.00 0.01 0.01 79 1008.8